GW3945 Weather Reports


Display with metric or nautical units.
time (UTC)temp
F
wind
direction
speed
MPH
gust
MPH
rain 1hr
in
rain 24hr
in
rain mn
in
humidity
%
barometer
mb
20260903171401 92 207 0.0 0.0 0.00 0.00 0.00 59 1015.9
20260903170901 93 210 0.0 0.0 0.00 0.00 0.00 62 1015.8
20260903170356 92 221 0.0 0.0 0.00 0.00 0.00 60 1016.1
20260903165854 93 278 2.0 2.0 0.00 0.00 0.00 57 1015.8
20260903165349 93 234 0.0 0.0 0.00 0.00 0.00 59 1015.8
20260903164844 92 218 0.0 0.0 0.00 0.00 0.00 64 1015.7
20260903164339 92 214 0.0 0.0 0.00 0.00 0.00 65 1015.9
20260903163838 91 214 0.0 0.0 0.00 0.00 0.00 65 1015.9
20260903163335 91 213 0.0 0.0 0.00 0.00 0.00 66 1016.1
20260903162830 91 215 0.0 0.0 0.00 0.00 0.00 69 1016.3
20260903162327 91 217 0.0 0.0 0.00 0.00 0.00 68 1016.3
20260903161822 91 216 0.0 0.0 0.00 0.00 0.00 68 1016.2
20260903161318 91 217 0.0 0.0 0.00 0.00 0.00 70 1016.5
20260903160813 90 218 0.0 0.0 0.00 0.00 0.00 70 1016.5
20260903160312 90 218 0.0 0.0 0.00 0.00 0.00 69 1016.5
20260903155811 90 246 0.0 0.0 0.00 0.00 0.00 68 1016.3
20260903155306 90 220 0.0 0.0 0.00 0.00 0.00 69 1016.3
20260903154801 90 222 0.0 0.0 0.00 0.00 0.00 69 1016.5
20260903154257 90 222 0.0 0.0 0.00 0.00 0.00 70 1016.5
20260903153753 89 220 0.0 0.0 0.00 0.00 0.00 71 1016.5
20260903153249 89 220 0.0 0.0 0.00 0.00 0.00 71 1016.7
20260903152744 89 220 0.0 0.0 0.00 0.00 0.00 73 1016.5
20260903152240 89 220 0.0 0.0 0.00 0.00 0.00 73 1016.4
20260903151740 89 220 0.0 0.0 0.00 0.00 0.00 72 1016.5
20260903151236 88 227 0.0 0.0 0.00 0.00 0.00 73 1016.5
20260903150731 88 228 0.0 0.0 0.00 0.00 0.00 73 1016.5
20260903150225 88 228 0.0 0.0 0.00 0.00 0.00 75 1016.5
20260903145726 87 228 0.0 0.0 0.00 0.00 0.00 76 1016.5
20260903145221 87 227 0.0 0.0 0.00 0.00 0.00 77 1016.5
20260903144719 86 227 0.0 0.0 0.00 0.00 0.00 78 1016.5
20260903144215 86 227 0.0 0.0 0.00 0.00 0.00 81 1016.5
20260903143711 85 227 0.0 0.0 0.00 0.00 0.00 81 1016.5
20260903143207 85 227 0.0 0.0 0.00 0.00 0.00 82 1016.4
20260903142703 84 227 0.0 0.0 0.00 0.00 0.00 82 1016.3
20260903142159 84 227 0.0 0.0 0.00 0.00 0.00 81 1016.5
20260903141654 83 227 0.0 0.0 0.00 0.00 0.00 84 1016.5
20260903141148 82 227 0.0 0.0 0.00 0.00 0.00 85 1016.5
20260903140645 82 226 0.0 0.0 0.00 0.00 0.00 86 1016.6
20260903140140 81 226 0.0 0.0 0.00 0.00 0.00 87 1016.4
20260903135635 81 226 0.0 0.0 0.00 0.00 0.00 87 1016.4
20260903135130 80 226 0.0 0.0 0.00 0.00 0.00 87 1016.6
20260903134629 80 226 0.0 0.0 0.00 0.00 0.00 87 1016.7
20260903134125 80 226 0.0 0.0 0.00 0.00 0.00 87 1016.5
20260903133623 79 226 0.0 0.0 0.00 0.00 0.00 87 1016.5
20260903133119 79 226 0.0 0.0 0.00 0.00 0.00 87 1016.7
20260903132614 78 226 0.0 0.0 0.00 0.00 0.00 88 1016.6
20260903132113 78 226 0.0 0.0 0.00 0.00 0.00 88 1016.6
20260903131608 78 226 0.0 0.0 0.00 0.00 0.00 88 1016.8
20260903131107 78 226 0.0 0.0 0.00 0.00 0.00 88 1016.7
20260903130602 77 226 0.0 0.0 0.00 0.00 0.00 88 1016.8
20260903130057 76 226 0.0 0.0 0.00 0.00 0.00 90 1016.9
20260903125555 75 226 0.0 0.0 0.00 0.00 0.00 91 1016.7
20260903125051 75 227 0.0 0.0 0.00 0.00 0.00 93 1016.6
20260903124550 75 228 0.0 0.0 0.00 0.00 0.00 93 1017.0
20260903124045 74 228 0.0 0.0 0.00 0.00 0.00 93 1016.8
20260903123544 74 228 0.0 0.0 0.00 0.00 0.00 94 1016.7
20260903123043 74 229 0.0 0.0 0.00 0.00 0.00 94 1016.9
20260903122542 73 229 0.0 0.0 0.00 0.00 0.00 94 1016.7
20260903122037 73 229 0.0 0.0 0.00 0.00 0.00 94 1016.6
20260903121532 73 229 0.0 0.0 0.00 0.00 0.00 94 1016.6
20260903121028 73 229 0.0 0.0 0.00 0.00 0.00 94 1016.5
20260903120526 73 229 0.0 0.0 0.00 0.00 0.00 94 1016.5
20260903120021 73 229 0.0 0.0 0.00 0.00 0.00 94 1016.3
20260903115519 73 228 0.0 0.0 0.00 0.00 0.00 94 1016.5
20260903115014 73 229 0.0 0.0 0.00 0.00 0.00 94 1016.4
20260903114509 73 229 0.0 0.0 0.00 0.00 0.00 94 1016.6
20260903114005 73 228 0.0 0.0 0.00 0.00 0.00 95 1016.3
20260903113500 72 228 0.0 0.0 0.00 0.00 0.00 95 1016.5
20260903112956 72 228 0.0 0.0 0.00 0.00 0.00 95 1016.6
20260903112452 72 229 0.0 0.0 0.00 0.00 0.00 95 1016.3
20260903111951 72 229 0.0 0.0 0.00 0.00 0.00 95 1016.1
20260903111445 73 229 0.0 0.0 0.00 0.00 0.00 95 1016.2
20260903110942 72 228 0.0 0.0 0.00 0.00 0.00 95 1016.1
20260903110437 72 228 0.0 0.0 0.00 0.00 0.00 94 1016.0
20260903105931 73 228 0.0 0.0 0.00 0.00 0.00 94 1015.8
20260903105427 73 229 0.0 0.0 0.00 0.00 0.00 94 1015.7
20260903104926 73 229 0.0 0.0 0.00 0.00 0.00 94 1015.8
20260903104420 73 229 0.0 0.0 0.00 0.00 0.00 94 1015.6
20260903103917 73 229 0.0 0.0 0.00 0.00 0.00 94 1015.8
20260903103413 73 228 0.0 0.0 0.00 0.00 0.00 94 1015.5
20260903102908 73 229 0.0 0.0 0.00 0.00 0.00 93 1015.7
20260903102403 74 229 0.0 0.0 0.00 0.00 0.00 93 1015.5
20260903101902 74 229 0.0 0.0 0.00 0.00 0.00 93 1015.6
20260903101357 74 229 0.0 0.0 0.00 0.00 0.00 93 1015.6
20260903100853 74 229 0.0 0.0 0.00 0.00 0.00 93 1015.5
20260903100348 74 230 0.0 0.0 0.00 0.00 0.00 93 1015.4
20260903095844 73 229 0.0 0.0 0.00 0.00 0.00 94 1015.6
20260903095339 73 229 0.0 0.0 0.00 0.00 0.00 93 1015.2
20260903094834 73 228 0.0 0.0 0.00 0.00 0.00 94 1015.5
20260903094328 74 228 0.0 0.0 0.00 0.00 0.00 93 1015.4
20260903093824 74 228 0.0 0.0 0.00 0.00 0.00 93 1015.5
20260903093319 73 228 0.0 0.0 0.00 0.00 0.00 93 1015.4
20260903092814 74 239 0.0 0.0 0.00 0.00 0.00 94 1015.4
20260903092309 73 228 0.0 0.0 0.00 0.00 0.00 94 1015.4
20260903091808 74 228 0.0 0.0 0.00 0.00 0.00 94 1015.4
20260903091301 74 228 0.0 0.0 0.00 0.00 0.00 93 1015.5
20260903090757 74 230 0.0 0.0 0.00 0.00 0.00 93 1015.7
20260903090257 74 231 0.0 0.0 0.00 0.00 0.00 94 1015.2
20260903085755 74 227 0.0 0.0 0.00 0.00 0.00 94 1015.6
20260903085250 74 227 0.0 0.0 0.00 0.00 0.00 94 1015.6
20260903084748 74 227 0.0 0.0 0.00 0.00 0.00 94 1015.5
20260903084237 74 228 0.0 0.0 0.00 0.00 0.00 94 1015.5
20260903083733 74 228 0.0 0.0 0.00 0.00 0.00 94 1015.6
20260903083227 74 228 0.0 0.0 0.00 0.00 0.00 94 1015.3
20260903082726 74 227 0.0 0.0 0.00 0.00 0.00 93 1015.6
20260903082222 74 227 0.0 0.0 0.00 0.00 0.00 93 1015.4
20260903081722 75 227 0.0 0.0 0.00 0.00 0.00 93 1015.4
20260903081218 75 228 0.0 0.0 0.00 0.00 0.00 92 1015.5
20260903080714 75 228 0.0 0.0 0.00 0.00 0.00 92 1015.2
20260903080212 75 228 0.0 0.0 0.00 0.00 0.00 91 1015.4
20260903075710 75 237 0.0 0.0 0.00 0.00 0.00 93 1015.3
20260903075206 75 227 0.0 0.0 0.00 0.00 0.00 93 1015.4
20260903074704 75 227 0.0 0.0 0.00 0.00 0.00 92 1015.3
20260903074200 75 227 0.0 0.0 0.00 0.00 0.00 92 1015.3
20260903073655 75 228 0.0 0.0 0.00 0.00 0.00 91 1015.4
20260903073150 75 228 0.0 0.0 0.00 0.00 0.00 93 1015.2
20260903072646 75 233 0.0 0.0 0.00 0.00 0.00 93 1015.3
20260903072143 75 227 0.0 0.0 0.00 0.00 0.00 93 1015.4
20260903071639 75 227 0.0 0.0 0.00 0.00 0.00 93 1015.3
20260903071134 75 227 0.0 0.0 0.00 0.00 0.00 93 1015.3
20260903070634 75 233 0.0 0.0 0.00 0.00 0.00 93 1015.5
20260903070129 75 227 0.0 0.0 0.00 0.00 0.00 93 1015.6
20260903065629 75 227 0.0 0.0 0.00 0.00 0.00 93 1015.4
20260903065124 75 227 0.0 0.0 0.00 0.00 0.00 93 1015.4
20260903064618 75 227 0.0 0.0 0.00 0.00 0.00 92 1015.6
20260903064113 75 227 0.0 0.0 0.00 0.00 0.00 92 1015.4
20260903063609 75 227 0.0 0.0 0.00 0.00 0.00 92 1015.4
20260903063104 75 227 0.0 0.0 0.00 0.00 0.00 92 1015.5
20260903062559 75 227 0.0 0.0 0.00 0.00 0.00 93 1015.6
20260903062055 75 227 0.0 0.0 0.00 0.00 0.00 92 1015.4
20260903061550 76 227 0.0 0.0 0.00 0.00 0.00 92 1015.4
20260903061049 76 227 0.0 0.0 0.00 0.00 0.00 92 1015.4
20260903060549 76 227 0.0 0.0 0.00 0.00 0.00 92 1015.7
20260903060044 76 227 0.0 0.0 0.00 0.00 0.00 91 1015.4
20260903055542 77 227 0.0 0.0 0.00 0.00 0.00 90 1015.7
20260903055040 77 227 0.0 0.0 0.00 0.00 0.00 90 1015.6
20260903054536 76 227 0.0 0.0 0.00 0.00 0.00 89 1015.7
20260903054031 76 230 0.0 0.0 0.00 0.00 0.00 89 1015.5
20260903053526 76 227 0.0 0.0 0.00 0.00 0.00 92 1015.4
20260903053023 76 225 0.0 0.0 0.00 0.00 0.00 92 1015.5
20260903052518 76 225 0.0 0.0 0.00 0.00 0.00 92 1015.5
20260903052014 76 225 0.0 0.0 0.00 0.00 0.00 92 1015.6
20260903051508 76 225 0.0 0.0 0.00 0.00 0.00 91 1015.5
20260903051004 76 226 0.0 0.0 0.00 0.00 0.00 92 1015.5
20260903050503 77 226 0.0 0.0 0.00 0.00 0.00 91 1015.5
20260903045957 77 229 0.0 0.0 0.00 0.00 0.00 91 1015.3
20260903045453 77 228 0.0 0.0 0.00 0.00 0.00 91 1015.5
20260903044949 77 228 0.0 0.0 0.00 0.00 0.00 91 1015.1
20260903044445 77 229 0.0 0.0 0.00 0.00 0.00 90 1015.5
20260903043941 77 227 0.0 0.0 0.00 0.00 0.00 90 1015.4
20260903043437 77 227 0.0 0.0 0.00 0.00 0.00 90 1015.5
20260903042935 77 227 0.0 0.0 0.00 0.00 0.00 90 1015.4
20260903042430 77 227 0.0 0.0 0.00 0.00 0.00 89 1015.4
20260903041926 77 227 0.0 0.0 0.00 0.00 0.00 90 1015.5
20260903041422 77 227 0.0 0.0 0.00 0.00 0.00 90 1015.4
20260903040918 77 227 0.0 0.0 0.00 0.00 0.00 90 1015.6
20260903040417 78 227 0.0 0.0 0.00 0.00 0.00 90 1015.5
20260903035913 78 227 0.0 0.0 0.00 0.00 0.00 89 1015.5
20260903035408 78 227 0.0 0.0 0.00 0.00 0.00 89 1015.5
20260903034903 78 228 0.0 0.0 0.00 0.00 0.00 89 1015.5
20260903034358 78 226 0.0 0.0 0.00 0.00 0.00 89 1015.5
20260903033853 78 226 0.0 0.0 0.00 0.00 0.00 89 1015.4
20260903033348 78 226 0.0 0.0 0.00 0.00 0.00 88 1015.4
20260903032848 78 226 0.0 0.0 0.00 0.00 0.00 89 1015.6
20260903032344 78 223 0.0 0.0 0.00 0.00 0.00 89 1015.5
20260903031839 79 223 0.0 0.0 0.00 0.00 0.00 89 1015.4
20260903031338 79 223 0.0 0.0 0.00 0.00 0.00 88 1015.5
20260903030834 79 223 0.0 0.0 0.00 0.00 0.00 88 1015.6
20260903030330 79 223 0.0 0.0 0.00 0.00 0.00 87 1015.5
20260903025826 79 229 0.0 0.0 0.00 0.00 0.00 87 1015.5
20260903025321 79 226 0.0 0.0 0.00 0.00 0.00 88 1015.7
20260903024820 79 226 0.0 0.0 0.00 0.00 0.00 88 1015.6
20260903024320 79 226 0.0 0.0 0.00 0.00 0.00 89 1015.6
20260903023816 79 226 0.0 0.0 0.00 0.00 0.00 89 1015.6
20260903023311 79 226 0.0 0.0 0.00 0.00 0.00 87 1015.6
20260903022806 79 224 0.0 0.0 0.00 0.00 0.00 89 1015.5
20260903022306 79 224 0.0 0.0 0.00 0.00 0.00 90 1015.5
20260903021759 80 224 0.0 0.0 0.00 0.00 0.00 89 1015.5
20260903021255 80 222 0.0 0.0 0.00 0.00 0.00 89 1015.6
20260903020754 80 220 0.0 0.0 0.00 0.00 0.00 88 1015.4
20260903020249 80 220 0.0 0.0 0.00 0.00 0.00 89 1015.5
20260903015744 81 220 0.0 0.0 0.00 0.00 0.00 88 1015.5
20260903015239 81 220 0.0 0.0 0.00 0.00 0.00 86 1015.4
20260903014734 81 220 0.0 0.0 0.00 0.00 0.00 86 1015.5
20260903014229 82 220 0.0 0.0 0.00 0.00 0.00 85 1015.3
20260903013724 81 220 0.0 0.0 0.00 0.00 0.00 83 1015.3
20260903013223 81 219 0.0 0.0 0.00 0.00 0.00 86 1015.3
20260903012722 81 219 0.0 0.0 0.00 0.00 0.00 86 1015.3
20260903012221 82 219 0.0 0.0 0.00 0.00 0.00 86 1015.2
20260903011716 82 219 0.0 0.0 0.00 0.00 0.00 86 1015.2
20260903011216 82 219 0.0 0.0 0.00 0.00 0.00 86 1015.2
20260903010712 82 219 0.0 0.0 0.00 0.00 0.00 84 1014.9
20260903010211 83 219 0.0 0.0 0.00 0.00 0.00 84 1014.7
20260903005710 83 219 0.0 0.0 0.00 0.00 0.00 83 1015.0
20260903005205 83 219 0.0 0.0 0.00 0.00 0.00 83 1015.0
20260903004701 84 219 0.0 0.0 0.00 0.00 0.00 82 1015.1
20260903004155 84 219 0.0 0.0 0.00 0.00 0.00 81 1014.9
20260903003651 84 233 0.0 0.0 0.00 0.00 0.00 79 1015.1
20260903003147 84 220 0.0 0.0 0.00 0.00 0.00 79 1014.9
20260903002642 85 220 0.0 0.0 0.00 0.00 0.00 80 1015.1
20260903002136 85 219 0.0 0.0 0.00 0.00 0.00 79 1015.1
20260903001631 86 219 0.0 0.0 0.00 0.00 0.00 78 1015.0
20260903001125 86 219 0.0 0.0 0.00 0.00 0.00 78 1015.1
20260903000621 87 219 0.0 0.0 0.00 0.00 0.00 78 1015.1
20260903000120 87 219 0.0 0.0 0.00 0.00 0.00 77 1015.1
20260902235619 87 219 0.0 0.0 0.00 0.00 0.00 75 1015.0
20260902235114 88 219 0.0 0.0 0.00 0.00 0.00 73 1015.3
20260902234608 88 219 0.0 0.0 0.00 0.00 0.00 73 1015.0
20260902234107 88 219 0.0 0.0 0.00 0.00 0.00 72 1015.3
20260902233602 89 219 0.0 0.0 0.00 0.00 0.00 72 1015.3
20260902233056 89 219 0.0 0.0 0.00 0.00 0.00 68 1015.1
20260902232555 90 219 0.0 0.0 0.00 0.00 0.00 67 1015.0
20260902232050 90 219 0.0 0.0 0.00 0.00 0.00 65 1015.2
20260902231545 90 219 0.0 0.0 0.00 0.00 0.00 63 1015.2
20260902231044 91 219 0.0 0.0 0.00 0.00 0.00 63 1015.1
20260902230539 91 219 0.0 0.0 0.00 0.00 0.00 64 1015.1
20260902230038 91 219 0.0 0.0 0.00 0.00 0.00 67 1015.2
20260902225534 93 220 0.0 0.0 0.00 0.00 0.00 60 1015.2
20260902225033 93 220 0.0 0.0 0.00 0.00 0.00 57 1015.2
20260902224532 93 220 0.0 0.0 0.00 0.00 0.00 55 1015.2
20260902224028 94 219 0.0 0.0 0.00 0.00 0.00 54 1015.2
20260902223524 94 219 0.0 0.0 0.00 0.00 0.00 53 1015.1
20260902223023 94 219 0.0 0.0 0.00 0.00 0.00 52 1015.2
20260902222522 94 220 0.0 0.0 0.00 0.00 0.00 51 1015.2
20260902222020 94 220 0.0 0.0 0.00 0.00 0.00 50 1015.1
20260902221515 95 224 0.0 0.0 0.00 0.00 0.00 48 1015.5
20260902221010 95 221 0.0 0.0 0.00 0.00 0.00 49 1015.4
20260902220505 95 224 0.0 0.0 0.00 0.00 0.00 49 1015.4
20260902215959 96 221 0.0 0.0 0.00 0.00 0.00 51 1015.4
20260902215456 95 222 0.0 0.0 0.00 0.00 0.00 50 1015.5
20260902214952 95 215 0.0 0.0 0.00 0.00 0.00 49 1015.4
20260902214450 96 216 0.0 0.0 0.00 0.00 0.00 48 1015.5
20260902213944 96 216 0.0 0.0 0.00 0.00 0.00 48 1015.4
20260902213441 97 227 0.0 0.0 0.00 0.00 0.00 46 1015.4
20260902212939 97 225 0.0 0.0 0.00 0.00 0.00 51 1015.2
20260902212436 97 225 0.0 0.0 0.00 0.00 0.00 50 1015.6
20260902211932 97 225 0.0 0.0 0.00 0.00 0.00 48 1015.5
20260902211427 96 225 0.0 0.0 0.00 0.00 0.00 48 1015.6
20260902210923 95 226 0.0 0.0 0.00 0.00 0.00 50 1015.6
20260902210422 95 227 0.0 0.0 0.00 0.00 0.00 49 1015.5
20260902205915 95 214 0.0 0.0 0.00 0.00 0.00 50 1015.5
20260902205410 95 215 0.0 0.0 0.00 0.00 0.00 51 1015.6
20260902204906 94 225 0.0 0.0 0.00 0.00 0.00 51 1015.5
20260902204405 94 214 0.0 0.0 0.00 0.00 0.00 52 1015.6
20260902203901 93 271 0.0 1.0 0.00 0.00 0.00 50 1015.7
20260902203356 93 220 0.0 0.0 0.00 0.00 0.00 52 1015.8
20260902202850 94 209 0.0 0.0 0.00 0.00 0.00 52 1015.9
20260902202346 93 224 0.0 0.0 0.00 0.00 0.00 51 1016.0
20260902201843 92 204 0.0 0.0 0.00 0.00 0.00 52 1016.1
20260902201342 92 204 0.0 0.0 0.00 0.00 0.00 52 1016.0
20260902200837 93 204 0.0 0.0 0.00 0.00 0.00 53 1016.1
20260902200332 92 204 0.0 0.0 0.00 0.00 0.00 51 1016.2
20260902195828 93 211 0.0 0.0 0.00 0.00 0.00 53 1016.3
20260902195327 93 220 0.0 0.0 0.00 0.00 0.00 57 1016.4
20260902194822 92 205 0.0 0.0 0.00 0.00 0.00 53 1016.3
20260902194317 92 204 0.0 0.0 0.00 0.00 0.00 53 1016.4
20260902193812 92 204 0.0 0.0 0.00 0.00 0.00 54 1016.5
20260902193308 93 210 0.0 0.0 0.00 0.00 0.00 55 1016.5
20260902192807 94 222 0.0 1.0 0.00 0.00 0.00 52 1016.4
20260902192307 93 213 0.0 0.0 0.00 0.00 0.00 52 1016.6
20260902191805 92 209 0.0 0.0 0.00 0.00 0.00 54 1016.8
20260902191301 92 208 0.0 0.0 0.00 0.00 0.00 54 1016.9
20260902190756 93 209 0.0 0.0 0.00 0.00 0.00 54 1017.0
20260902190255 92 219 0.0 0.0 0.00 0.00 0.00 53 1016.9
20260902185751 93 206 0.0 0.0 0.00 0.00 0.00 56 1017.0
20260902185246 93 214 0.0 0.0 0.00 0.00 0.00 54 1017.0
20260902184742 93 254 0.0 0.0 0.00 0.00 0.00 56 1017.1
20260902184243 92 211 0.0 0.0 0.00 0.00 0.00 56 1017.0
20260902183738 92 183 0.0 0.0 0.00 0.00 0.00 55 1016.9
20260902183234 92 215 0.0 0.0 0.00 0.00 0.00 56 1017.2
20260902182730 92 219 0.0 0.0 0.00 0.00 0.00 56 1016.9
20260902182227 93 226 0.0 0.0 0.00 0.00 0.00 56 1017.2
20260902181723 93 202 0.0 0.0 0.00 0.00 0.00 55 1017.2
20260902181222 93 228 0.0 0.0 0.00 0.00 0.00 56 1017.2
20260902180717 92 209 0.0 0.0 0.00 0.00 0.00 57 1017.2
20260902180212 92 209 0.0 0.0 0.00 0.00 0.00 58 1017.4
20260902175707 91 258 2.0 2.0 0.00 0.00 0.00 55 1017.3
20260902175203 91 194 0.0 0.0 0.00 0.00 0.00 57 1017.4
20260902174659 92 218 0.0 0.0 0.00 0.00 0.00 58 1017.7
20260902174155 91 220 0.0 0.0 0.00 0.00 0.00 57 1017.5
20260902173650 91 184 0.0 1.0 0.00 0.00 0.00 58 1017.7
20260902173145 91 194 0.0 0.0 0.00 0.00 0.00 58 1017.8
20260902172639 91 197 0.0 0.0 0.00 0.00 0.00 57 1017.7
20260902172138 91 212 0.0 0.0 0.00 0.00 0.00 60 1017.9
20260902171634 91 215 0.0 0.0 0.00 0.00 0.00 59 1017.9